Location: *
(52.8703°S, 174.1768°W)
Time: 05:06:04
(UTC+00:00)

Daily predictions for brighter satellites

Satellite Brightness Start Highest point End
(mag) Time Altitude Azimuth Time Altitude Azimuth Time Altitude Azimuth
CZ-4B R/B 3.6 04:06:39 10° NNW 04:09:53 33° W 04:13:09 10° SSW
Cosmos 1980 Rocket 3.4 04:04:44 10° WNW 04:10:00 37° SW 04:15:17 10° SSE
CZ-4B R/B 3.7 04:09:18 10° SSE 04:13:23 38° E 04:17:33 10° NNE
Cosmos 1328 Rocket 4.0 04:09:55 10° SSW 04:14:20 68° W 04:18:43 10° N
STARLINK-1291 4.3 04:12:13 10° NW 04:15:18 33° NNE 04:18:24 10° E
STARLINK-1317 4.3 04:12:25 10° NW 04:15:45 36° NNE 04:19:08 10° E
CZ-2C R/B 4.4 04:14:54 10° ESE 04:16:12 11° SE 04:17:31 10° SSE
STARLINK-1264 4.3 04:14:04 10° NW 04:17:11 34° NNE 04:20:20 10° E
ADEOS II 4.4 04:13:57 10° SSW 04:17:19 17° SW 04:20:40 10° W
STARLINK-33 3.8 04:15:29 10° NW 04:18:37 44° NNE 04:21:48 10° E
STARLINK-1267 4.2 04:15:56 10° NW 04:19:06 35° NNE 04:22:16 10° E
SKYMED 2 3.7 04:14:57 10° NNE 04:19:16 59° ESE 04:23:39 10° S
Cosmos 1606 3.8 04:16:15 10° SSW 04:20:10 52° W 04:24:02 10° N
STARLINK-1272 4.2 04:17:48 10° NW 04:20:58 35° NNE 04:24:09 10° E
Cosmos 1844 3.8 04:15:46 10° SSW 04:21:26 82° WNW 04:27:01 10° NNE
STARLINK-1207 4.2 04:19:41 10° NW 04:22:52 36° NNE 04:26:05 10° E
ALOS 2.6 04:19:23 10° SSE 04:24:00 48° E 04:28:34 10° N
H-2A R/B 3.2 04:20:28 10° SSE 04:24:23 34° E 04:28:07 10° NNE
Cosmos 1340 3.4 04:21:11 10° NNE 04:24:41 35° E 04:28:14 10° SSE
STARLINK-1266 4.1 04:21:36 10° NW 04:24:49 37° NNE 04:28:03 10° E
Cosmos 2219 Rocket 3.2 04:21:10 10° NNE 04:25:58 29° ENE 04:30:49 10° SE
STARLINK-1284 4.1 04:23:34 10° NW 04:26:47 38° NNE 04:30:02 10° E
Iridium 4 Rocket 3.5 04:21:36 10° N 04:26:57 72° E 04:31:54 10° S
STARLINK-66 3.6 04:24:06 10° NW 04:27:18 49° NNE 04:30:28 10° E
Okean 3 Rocket 4.4 04:23:04 10° NNW 04:27:25 54° WSW 04:31:51 10° S
STARLINK-1258 4.0 04:25:27 10° NW 04:28:41 39° NNE 04:31:55 10° E
CZ-4B R/B 3.9 04:24:40 10° SSE 04:28:48 69° ENE 04:32:42 10° N
Meteor 2-6 Rocket 4.3 04:23:40 10° S 04:29:03 53° ESE 04:34:29 10° NNE
SeaSat 1 4.4 04:28:23 10° SE 04:30:16 12° SSE 04:32:09 10° S
STARLINK-1292 4.0 04:27:24 10° NW 04:30:39 40° NNE 04:33:49 11° E
STARLINK-52 3.6 04:27:52 10° W 04:31:08 58° NNW 04:34:21 10° ENE
Cosmos 2151 4.4 04:28:02 10° NW 04:32:05 40° WSW 04:36:11 10° S
STARLINK-1338 3.3 04:28:42 10° W 04:32:23 89° N 04:36:04 10° E
STARLINK-1274 4.0 04:29:23 10° NW 04:32:39 41° NNE 04:35:45 11° E
CZ-4C R/B 3.5 04:26:32 10° W 04:33:32 42° SSW 04:39:26 10° SE
Cosmos 1782 2.8 04:30:21 10° S 04:34:26 80° E 04:38:28 10° NNE
STARLINK-1289 3.9 04:31:23 10° NW 04:34:40 42° NNE 04:37:43 12° E
FALCON 9 DEB 3.5 04:31:31 10° W 04:35:04 70° NNW 04:38:35 10° ENE
STARLINK-1303 3.9 04:33:20 10° NW 04:36:39 43° NNE 04:39:37 12° E
IDEFIX/ARIANE 42P 4.4 04:33:16 10° S 04:37:38 27° WSW 04:41:57 10° WNW
STARLINK-1371 3.3 04:34:05 10° W 04:37:47 88° N 04:41:29 10° E
Cosmos 1500 Rocket 3.7 04:33:31 10° N 04:37:50 58° E 04:42:12 10° SSE
STARLINK-75 3.5 04:35:11 10° NW 04:38:22 52° NNE 04:41:08 13° E
STARLINK-1312 3.8 04:35:19 10° NW 04:38:37 44° NNE 04:41:32 13° E
SL-4 R/B 3.7 04:36:50 10° W 04:40:06 30° NNW 04:43:32 10° NE
Cosmos 1862 4.3 04:36:56 10° NNE 04:40:23 27° E 04:43:55 10° SSE
STARLINK-1341 3.3 04:36:46 10° W 04:40:28 87° N 04:44:10 10° E
Cosmos 2322 Rocket 2.7 04:36:28 10° NW 04:42:09 62° SW 04:47:54 10° SSE
Cosmos 2237 4.3 04:37:13 10° NNW 04:42:57 86° ENE 04:48:46 10° SSE
STARLINK-1374 3.3 04:39:21 10° W 04:43:04 86° N 04:46:42 10° ENE
STARLINK-58 3.9 04:42:11 10° NW 04:45:14 38° NNE 04:47:38 15° E
Cosmos 1408 Rocket 4.1 04:40:56 10° NNW 04:45:26 66° WSW 04:50:00 10° S
STARLINK-1339 3.3 04:42:02 10° W 04:45:46 85° N 04:49:19 11° ENE
Cosmos 1238 Rocket 4.4 04:45:33 10° ENE 04:47:56 15° E 04:48:23 15° E
STARLINK-22 3.5 04:44:47 10° NW 04:47:59 51° NNE 04:50:24 16° E
STARLINK-1377 3.3 04:44:23 10° W 04:48:05 84° N 04:51:30 12° ENE
Cosmos 1805 Rocket 4.1 04:44:08 10° NNE 04:48:13 38° E 04:52:24 10° SSE
Cosmos 2123 Rocket 4.0 04:42:16 10° S 04:48:36 81° E 04:54:52 10° NNE
Meteor 1-27 Rocket 4.1 04:44:58 10° S 04:50:39 45° ESE 04:56:21 10° NE
STARLINK-1353 3.3 04:47:03 10° W 04:50:45 83° N 04:54:05 12° ENE
STARLINK 1040 2.4 04:48:26 10° WNW 04:51:07 84° N 04:52:48 20° E
Cosmos 1812 3.1 04:48:06 10° S 04:51:52 40° ESE 04:55:34 10° NE
STARLINK-1320 3.0 04:48:59 10° W 04:52:12 76° NNW 04:54:59 13° ENE
STARLINK-1322 3.0 04:49:19 10° W 04:52:31 76° NNW 04:55:18 13° ENE
ADEOS 4.5 04:47:39 10° S 04:52:47 50° WSW 04:57:52 10° NW
STARLINK-1324 3.0 04:49:39 10° W 04:52:52 76° NNW 04:55:38 13° ENE
USA 234 3.4 04:47:01 13° ESE 04:53:06 71° NNE 04:59:42 10° NW
STARLINK-1294 3.0 04:50:01 10° W 04:53:13 76° NNW 04:55:55 13° ENE
STARLINK-1261 3.0 04:50:20 10° W 04:53:32 76° NNW 04:56:17 13° ENE
STARLINK-80 3.7 04:49:48 10° WNW 04:53:37 59° NNE 04:56:25 17° E
STARLINK-1375 3.4 04:50:04 10° W 04:53:47 82° NNW 04:57:03 13° ENE
STARLINK-43 3.3 04:50:03 10° W 04:53:50 87° NNE 04:56:34 18° E
STARLINK-1325 3.0 04:50:39 10° W 04:53:52 75° NNW 04:56:35 14° ENE
STARLINK-1333 3.0 04:51:02 10° W 04:54:15 75° NNW 04:56:57 14° ENE
Cosmos 1461 2.7 04:50:14 10° SW 04:54:18 65° SE 04:58:12 10° NE
STARLINK-1334 3.0 04:51:21 10° W 04:54:34 75° NNW 04:57:16 14° ENE
STARLINK-1326 3.0 04:51:42 10° W 04:54:55 75° NNW 04:57:35 14° ENE
STARLINK-1323 3.0 04:52:01 10° W 04:55:13 75° NNW 04:57:54 14° ENE
COSMOS 2455 4.2 04:50:48 10° SW 04:55:29 22° S 04:58:54 14° SE
STARLINK-1349 3.1 04:52:23 10° W 04:55:36 75° NNW 04:58:15 14° ENE
Cosmos 1538 Rocket 4.0 04:50:34 10° NNW 04:55:48 84° ENE 05:01:05 10° SSE
STARLINK-1336 3.0 04:52:42 10° W 04:55:55 74° NNW 04:58:33 14° ENE
STARLINK-1350 3.3 04:52:27 10° W 04:56:09 81° NNW 04:59:17 14° ENE
STARLINK-1331 3.1 04:53:05 10° W 04:56:17 74° NNW 04:58:55 14° ENE
COSMOS 2428 3.2 04:51:09 10° N 04:56:33 42° ENE 05:01:20 13° SE
STARLINK-1344 3.1 04:53:26 10° W 04:56:38 74° NNW 04:59:15 14° ENE
STARLINK-1343 3.1 04:53:42 10° W 04:56:55 74° NNW 04:59:31 15° ENE
STARLINK-1346 3.0 04:54:08 10° W 04:57:19 73° NNW 04:59:51 15° ENE
STARLINK-1328 3.1 04:54:24 10° W 04:57:36 73° NNW 05:00:11 15° ENE
STARLINK-1354 3.1 04:54:43 10° W 04:57:56 73° NNW 05:00:30 15° ENE
STARLINK-1347 3.1 04:55:05 10° W 04:58:17 73° NNW 05:00:51 15° ENE
STARLINK-1357 3.1 04:55:25 10° W 04:58:37 73° NNW 05:01:10 15° ENE
STARLINK-1352 3.4 04:55:11 10° W 04:58:53 79° NNW 05:01:54 15° ENE
STARLINK-1335 3.1 04:55:48 10° W 04:59:01 73° NNW 05:01:32 15° ENE
STARLINK-1327 3.1 04:56:04 10° W 04:59:17 72° NNW 05:01:48 15° ENE
STARLINK-1340 3.1 04:56:25 10° W 04:59:38 72° NNW 05:02:08 15° ENE
ADEOS Rocket 4.0 04:52:15 10° N 04:59:56 72° WNW 05:07:50 10° SSW
STARLINK-1356 3.1 04:56:46 10° W 04:59:58 72° NNW 05:02:27 16° ENE
STARLINK-1345 3.1 04:57:06 10° W 05:00:18 72° NNW 05:02:47 16° ENE
Meteor 1-31 Rocket 3.5 04:56:26 10° S 05:00:25 57° WSW 05:04:20 10° NNW
STARLINK-1355 3.1 04:57:26 10° W 05:00:38 72° NNW 05:03:06 16° ENE
STARLINK-1321 3.1 04:57:48 10° W 05:01:00 71° NNW 05:03:27 16° ENE
STARLINK-1358 3.1 04:58:07 10° W 05:01:19 71° NNW 05:03:45 16° ENE
STARLINK-1368 3.4 04:57:55 10° W 05:01:38 78° NNW 05:04:33 16° ENE
Cosmos 1624 Rocket 4.1 04:56:27 10° SSW 05:01:40 56° ESE 05:06:51 10° NE
STARLINK-1332 3.1 04:58:31 10° W 05:01:43 71° NNW 05:04:08 16° ENE
STARLINK-1348 3.1 04:58:48 10° W 05:02:01 71° NNW 05:04:25 16° ENE
ATLAS 5 CENTAUR R/B 3.9 04:57:26 10° NNE 05:02:16 20° ENE 05:04:51 16° E
STARLINK-1330 3.1 04:59:07 10° W 05:02:19 71° NNW 05:04:43 16° ENE
STARLINK-1283 3.6 04:58:33 10° WNW 05:02:24 66° NNE 05:04:52 21° E
STARLINK-1363 3.1 04:59:31 10° W 05:02:43 70° NNW 05:05:07 16° ENE
STARLINK-1337 3.1 04:59:48 10° W 05:03:01 70° NNW 05:05:23 17° ENE
STARLINK-1342 3.1 05:00:08 10° W 05:03:20 70° NNW 05:05:43 17° ENE
STARLINK-1311 3.1 05:00:36 10° WNW 05:03:37 59° NNE 05:05:12 24° E
STARLINK-1364 3.1 05:00:28 10° W 05:03:40 70° NNW 05:06:00 17° ENE
Cosmos 1535 Rocket 4.4 04:57:28 10° N 05:03:42 76° E 05:09:55 10° SSE
STARLINK-1376 3.1 05:00:50 10° W 05:04:02 70° NNW 05:06:22 17° ENE
STARLINK-1360 3.1 05:01:09 10° W 05:04:21 69° NNW 05:06:40 17° ENE
STARLINK-1369 3.4 05:00:42 10° W 05:04:24 77° NNW 05:07:12 16° ENE
STARLINK-1361 3.1 05:01:29 10° W 05:04:41 69° NNW 05:06:59 17° ENE
STARLINK-1367 3.1 05:01:52 10° W 05:05:01 68° NNW 05:07:16 17° ENE
CZ-4B R/B 3.8 05:00:08 10° SSE 05:05:08 35° E 05:10:09 10° NNE
STARLINK-1366 3.1 05:02:13 10° W 05:05:25 69° NNW 05:07:42 17° ENE
Cosmos 1943 Rocket 3.5 05:01:25 10° SSW 05:05:35 21° SSE 05:07:26 18° SE
Cosmos 371 Rocket 4.2 05:02:12 10° S 05:06:23 27° SE 05:08:53 18° E
Cosmos 2369 Rocket 3.7 05:02:51 10° SSW 05:06:52 19° SSE 05:08:42 17° SE
Cosmos 1707 Rocket 3.6 05:02:41 10° S 05:07:10 57° ESE 05:11:32 10° NNE
STARLINK-1372 3.4 05:03:29 10° W 05:07:11 75° NNW 05:09:54 17° ENE
COSMO-SKYMED 1 3.5 05:03:03 10° N 05:07:21 52° W 05:11:43 10° SSW
Iridium 96 3.2 05:06:09 14° SSW 05:07:31 59° W 05:09:14 10° N
Cosmos 1821 Rocket 4.4 05:01:59 10° NNW 05:08:06 67° WSW 05:14:23 10° S
Cosmos 2237 Rocket 3.3 05:04:45 10° NNE 05:09:08 24° ENE 05:11:03 20° ESE
STARLINK-42 3.0 05:06:22 10° WNW 05:09:38 72° NNE 05:11:15 27° E
STARLINK-1316 3.1 05:06:34 10° WNW 05:09:44 61° NNE 05:11:15 27° E
STARLINK-1378 3.4 05:06:31 10° W 05:10:15 74° NNW 05:12:53 18° ENE
STARLINK-1257 3.1 05:07:30 10° WNW 05:10:40 61° NNE 05:12:08 28° E
Meteor 2-20 Rocket 4.4 05:04:46 10° S 05:11:05 81° E 05:17:19 10° NNE
STARLINK-1256 3.1 05:08:23 10° WNW 05:11:33 62° NNE 05:13:00 29° E
SL-16 R/B 3.4 05:06:17 10° WNW 05:11:36 38° SW 05:16:58 10° SSE
Cosmos 2228 Rocket 4.0 05:07:33 10° SSW 05:12:04 53° W 05:16:28 10° N
Cosmos 1633 3.0 05:08:31 10° NNW 05:12:09 65° WSW 05:15:50 10° S
STARLINK-1213 3.1 05:09:17 10° WNW 05:12:28 63° NNE 05:13:52 29° E
STARLINK-1329 3.5 05:08:48 10° W 05:12:31 73° NNW 05:15:02 19° ENE
STARLINK-1379 3.4 05:09:04 10° W 05:12:46 73° NNW 05:15:17 19° ENE
STARLINK-1263 3.1 05:10:11 10° WNW 05:13:21 63° NNE 05:14:44 30° E
STARLINK-1259 3.1 05:11:04 10° WNW 05:14:15 64° NNE 05:15:35 31° E
STARLINK-1265 3.0 05:11:37 10° WNW 05:14:46 64° NNE 05:16:03 31° E
STARLINK-1285 3.1 05:11:58 10° WNW 05:15:09 64° NNE 05:16:27 31° E
STARLINK-1362 3.5 05:11:59 10° W 05:15:44 71° NNW 05:18:11 20° ENE
STARLINK-1268 3.1 05:12:36 10° WNW 05:15:46 64° NNE 05:17:02 32° E
STARLINK-1365 3.5 05:12:12 10° W 05:15:57 70° NNW 05:18:26 20° ENE
Cosmos 1371 Rocket 4.0 05:11:17 10° SSW 05:16:46 78° ESE 05:22:11 10° NNE
STARLINK-1296 3.0 05:13:48 10° WNW 05:16:59 65° NNE 05:18:13 33° E
ATLAS CENTAUR R/B 2.9 05:13:14 10° SW 05:17:05 25° SSE 05:18:35 21° SE
STARLINK-1260 3.0 05:14:41 10° WNW 05:17:52 66° NNE 05:19:04 34° E
STARLINK-1373 3.5 05:14:46 10° W 05:18:30 70° NNW 05:20:51 21° ENE
STARLINK-1318 3.0 05:15:36 10° WNW 05:18:47 66° NNE 05:19:57 35° E
STARLINK-1275 3.0 05:16:27 10° WNW 05:19:38 67° NNE 05:20:46 35° E
STARLINK-1309 3.0 05:17:21 10° WNW 05:20:32 67° NNE 05:21:39 36° E
Cosmos 1862 Rocket 4.0 05:16:44 10° S 05:21:05 41° ESE 05:25:24 10° NE
STARLINK-1390 3.5 05:17:28 10° W 05:21:10 68° NNW 05:23:23 22° ENE
NOSS 3-4 (A) 4.1 05:14:03 10° SW 05:21:24 49° SSE 05:25:49 22° E
STARLINK-1282 3.0 05:18:16 10° WNW 05:21:28 68° NNE 05:22:32 37° E
NOSS 3-4 (C) 4.1 05:14:09 10° SW 05:21:30 49° SSE 05:25:52 22° E
STARLINK-1313 2.9 05:19:18 10° WNW 05:22:30 72° NNE 05:23:32 39° E
Cosmos 1934 Rocket 4.2 05:16:17 10° NNW 05:22:41 82° WSW 05:29:12 10° S
STARLINK-62 3.2 05:19:40 10° WNW 05:22:54 60° NNE 05:23:57 37° E
STARLINK-1279 2.9 05:20:16 10° WNW 05:23:28 73° NNE 05:24:28 40° E
STARLINK-1298 3.0 05:20:57 10° WNW 05:24:09 70° NNE 05:25:07 40° E
STARLINK-1029 3.3 05:21:12 10° NW 05:24:20 51° NNE 05:25:14 37° ENE
STARLINK-34 3.2 05:21:37 10° WNW 05:24:51 61° NNE 05:25:50 38° E
STARLINK-1293 3.0 05:21:53 10° WNW 05:25:05 70° NNE 05:26:02 41° E
Cosmos 405 3.5 05:21:52 10° SSW 05:25:27 64° W 05:28:58 10° N
STARLINK-1301 3.2 05:22:34 10° WNW 05:26:07 74° NNE 05:27:22 37° E
STARLINK-55 2.9 05:23:14 10° WNW 05:26:32 84° N 05:27:31 42° E
Cosmos 158 Rocket 4.2 05:21:37 10° N 05:26:39 51° ENE 05:30:07 21° SE
STARLINK-1255 2.9 05:23:41 10° WNW 05:26:52 71° NNE 05:27:44 43° E
Okean O Rocket 1.9 05:23:38 17° SSE 05:26:52 47° E 05:31:11 10° N
H-2A R/B 3.0 05:25:18 24° SE 05:27:22 47° E 05:31:09 10° N
STARLINK-1299 4.2 05:23:43 10° NW 05:27:53 48° NNE 05:29:38 30° E
FENGYUN 3A 4.3 05:22:45 10° S 05:28:10 59° WSW 05:33:31 10° NW
STARLINK-1306 4.3 05:24:19 10° NW 05:28:22 44° NNE 05:30:01 30° E
Cosmos 2333 Rocket 2.2 05:23:15 10° NNW 05:29:02 78° ENE 05:33:32 18° SE
Cosmos 2278 Rocket 2.2 05:23:27 10° SSW 05:29:13 87° WNW 05:34:55 10° NNE
STARLINK-1307 3.2 05:25:56 10° WNW 05:29:29 73° NNE 05:30:38 40° E
Cosmos 2112 Rocket 4.1 05:24:58 10° N 05:30:09 54° ENE 05:33:30 22° SE
Cosmos 1484 Rocket 4.5 05:26:48 10° S 05:30:21 32° WSW 05:33:49 10° NW
STARLINK-1281 4.2 05:27:36 10° NW 05:31:36 44° NNE 05:33:02 31° ENE
STARLINK-1290 3.2 05:28:39 10° WNW 05:32:13 75° NNE 05:33:15 43° E
Cosmos 1605 Rocket 3.9 05:27:15 10° N 05:33:28 84° E 05:39:42 10° SSE
SMAP 3.5 05:32:36 27° SE 05:34:31 38° E 05:38:55 10° NNE
STARLINK-1297 3.2 05:31:18 10° WNW 05:34:52 76° NNE 05:35:48 46° E
STARLINK-26 3.1 05:31:48 10° W 05:35:21 88° NNE 05:36:13 49° E
Sich 1 3.0 05:31:11 10° N 05:35:37 79° E 05:40:08 10° SSE
STARLINK-1310 4.2 05:32:32 10° NW 05:36:34 46° NNE 05:37:49 35° ENE
STARLINK-28 2.9 05:33:38 10° W 05:36:56 89° NNE 05:37:31 58° E
STARLINK-41 2.8 05:35:48 10° WNW 05:39:02 85° N 05:39:29 63° E
PSLV R/B 4.4 05:35:09 10° S 05:39:20 62° WSW 05:43:25 10° NNW
STARLINK-1319 4.1 05:37:27 10° NW 05:41:31 48° NNE 05:42:36 38° ENE
STARLINK-48 3.6 05:38:58 10° WNW 05:42:54 66° NNE 05:43:52 47° E
Cosmos 2322 4.0 05:37:20 10° NW 05:43:00 67° SW 05:47:31 17° SSE
Cosmos 1346 Rocket 3.5 05:39:10 10° NNW 05:43:04 53° WSW 05:47:04 10° S
Cosmos 2056 Rocket 3.7 05:39:48 10° SSW 05:45:14 77° WNW 05:50:31 10° NNE
Cosmos 2360 Rocket 3.2 05:40:47 10° WNW 05:46:12 43° SW 05:50:58 13° SSE
STARLINK-1277 4.0 05:42:23 10° NW 05:46:28 51° NNE 05:47:22 42° ENE
ATLAS 2AS CENTAUR R/B 2.8 05:41:41 10° SW 05:48:00 55° SSE 05:51:07 31° E
NOAA 6 4.0 05:44:52 10° SSE 05:50:07 90° E 05:55:18 10° NNW
STARLINK-1276 3.9 05:47:20 10° NW 05:51:26 53° NNE 05:52:09 47° ENE
STARLINK-1291 2.9 05:48:18 10° WNW 05:51:43 84° N 05:51:51 80° ENE
MOS 1-B 4.5 05:46:00 10° SSE 05:51:55 78° WSW 05:57:46 10° NNW
SJ-7 4.4 05:49:33 18° S 05:52:34 79° WSW 05:56:37 10° NNW
STARLINK-1317 3.1 05:49:15 10° W 05:52:53 86° N 05:53:10 74° E
STARLINK-1264 2.9 05:50:11 10° WNW 05:53:37 85° N 05:53:41 84° NE
STARLINK-33 2.9 05:51:21 10° W 05:54:33 83° WSW 05:54:33 83° WSW
CZ-2C R/B 2.9 05:53:39 35° ENE 05:55:15 44° ESE 06:00:22 10° S
STARLINK-1267 3.0 05:52:07 10° WNW 05:55:34 86° NNE 05:55:34 86° NNE
Cosmos 1980 Rocket 4.4 05:52:28 10° SW 05:55:46 15° SSW 05:59:01 10° SSE
STARLINK-1305 3.8 05:52:17 10° NW 05:56:25 56° NNE 05:56:57 51° NE
STARLINK-1272 3.0 05:54:00 10° W 05:57:24 85° NNW 05:57:24 85° NNW
STARLINK-64 3.3 05:55:17 10° WNW 05:58:52 65° NNE 05:58:52 65° NNE
STARLINK-1207 3.1 05:55:55 10° W 05:59:15 82° WNW 05:59:15 82° WNW
H-2A R/B 4.2 05:56:01 10° S 05:59:50 32° WSW 06:03:29 10° NW
Cosmos 1818 3.8 05:54:44 10° NNW 05:59:54 48° ENE 06:00:42 44° E
STARLINK-1278 3.8 05:55:53 10° WNW 06:00:10 64° NNE 06:00:43 57° ENE
Cosmos 332 Rocket 4.0 05:56:04 10° SSW 06:00:52 49° ESE 06:01:02 49° ESE
YAOGAN 6 4.2 06:03:03 24° NNE 06:03:03 24° NNE 06:04:44 10° N
ALOS 4.2 05:57:09 10° S 06:01:14 29° WSW 06:05:17 10° WNW
STARLINK-1266 3.1 05:57:54 10° W 06:01:09 78° WNW 06:01:09 78° WNW
STARLINK-1262 3.7 05:57:14 10° WNW 06:01:23 59° NNE 06:01:44 56° NE
STARLINK-1280 3.7 05:57:43 10° WNW 06:02:00 65° NNE 06:02:29 59° ENE
Cosmos 1666 Rocket 3.5 05:57:42 10° NNW 06:02:07 83° W 06:04:56 22° S
STARLINK-1284 3.2 05:59:53 10° W 06:03:04 74° WNW 06:03:04 74° WNW
STARLINK-66 3.3 06:00:02 10° W 06:02:55 65° W 06:02:55 65° W
Cosmos 1633 Rocket 3.0 05:59:45 10° N 06:04:14 87° E 06:06:32 29° SSE
STARLINK-1258 3.3 06:01:48 10° W 06:04:55 70° W 06:04:55 70° W
STARLINK-1300 3.7 06:02:10 10° WNW 06:06:19 61° NNE 06:06:29 61° NE
Meteor 1-18 Rocket 4.3 06:00:41 10° S 06:06:20 53° ESE 06:08:02 40° ENE
SeaSat 1 3.7 06:07:27 27° SSE 06:07:27 27° SSE 06:10:45 10° SSW
STARLINK-1292 3.4 06:03:47 10° W 06:06:49 67° W 06:06:49 67° W
Meteor 1-25 Rocket 4.4 06:02:51 10° NNE 06:07:52 46° ENE 06:07:52 46° ENE
STARLINK-1274 3.5 06:05:47 10° W 06:08:46 63° W 06:08:46 63° W
Cosmos 2219 Rocket 2.5 06:03:52 10° NW 06:09:33 64° SW 06:13:00 25° SSE
STARLINK-1338 4.2 06:06:13 10° W 06:09:41 41° NNW 06:10:05 39° N
Cosmos 2100 Rocket 3.9 06:04:02 10° N 06:10:12 68° E 06:16:25 10° SSE
Cosmos 1680 Rocket 3.7 06:05:40 10° NW 06:10:58 70° WSW 06:13:59 26° SSE
STARLINK-1289 3.6 06:07:51 10° W 06:10:44 60° W 06:10:44 60° W
STARLINK-1295 3.7 06:07:09 10° WNW 06:11:18 64° NNE 06:11:18 64° NNE
STARLINK-1303 3.7 06:09:49 10° W 06:12:38 56° W 06:12:38 56° W
STARLINK-75 4.0 06:11:08 10° W 06:13:34 46° W 06:13:34 46° W
STARLINK-1371 4.4 06:11:41 10° W 06:15:08 38° NNW 06:15:21 38° NNW
STARLINK-1312 3.8 06:11:48 10° W 06:14:34 54° W 06:14:34 54° W
Cosmos 1452 Rocket 3.4 06:10:21 10° SSW 06:15:43 78° ESE 06:17:29 43° NE
STARLINK-1287 3.8 06:12:05 10° WNW 06:16:03 65° N 06:16:03 65° N
STARLINK-1341 4.4 06:14:27 10° W 06:17:53 37° NNW 06:18:02 37° NNW
Cosmos 1420 Rocket 4.2 06:13:40 10° SSW 06:19:05 75° WNW 06:24:07 11° NNE
STARLINK-58 4.4 06:17:51 10° W 06:19:58 37° W 06:19:58 37° W
CZ-4C R/B 3.4 06:17:33 10° WSW 06:23:34 32° S 06:24:38 30° SSE
Envisat 2.9 06:21:19 33° SSE 06:23:42 89° ENE 06:28:51 10° NNW
Cosmos 1980 3.6 06:18:49 10° NNW 06:24:31 78° ENE 06:25:39 58° SE
STARLINK-1302 4.0 06:22:01 10° WNW 06:25:38 60° NW 06:25:38 60° NW
Cosmos 2061 Rocket 3.9 06:20:51 10° N 06:27:01 60° E 06:28:12 51° SE
Cosmos 1238 Rocket 3.2 06:22:59 10° NNW 06:27:13 59° WSW 06:27:19 59° WSW
Cosmos 2322 Rocket 4.2 06:23:08 10° WSW 06:27:24 21° SSW 06:30:39 14° S
Feng Yun 1-1 Rocket 4.1 06:27:58 63° ENE 06:27:58 63° ENE 06:33:04 10° N
Cosmos 2297 3.6 06:23:34 10° SSW 06:29:19 86° ESE 06:30:33 57° NE
MOS 1 Rocket 3.5 06:31:08 61° S 06:31:08 61° S 06:35:15 10° SSW
Helios 1A Rocket 4.5 06:33:10 26° NNW 06:33:10 26° NNW 06:35:02 10° NNW
STARLINK-1273 4.2 06:27:00 10° WNW 06:30:25 56° NW 06:30:25 56° NW
STARLINK-43 4.4 06:27:55 10° W 06:30:36 44° W 06:30:36 44° W
STARLINK-80 4.3 06:27:57 10° W 06:30:50 48° W 06:30:50 48° W
Meteor 1-20 Rocket 4.1 06:26:10 10° N 06:31:55 71° E 06:32:29 66° ESE
NOSS 0 Rocket 3.9 06:27:02 10° NNW 06:33:20 86° WSW 06:35:22 46° SSE
STARLINK-1288 4.4 06:31:56 10° WNW 06:35:11 51° WNW 06:35:11 51° WNW
USA 234 3.4 06:34:22 49° SE 06:36:10 69° SSW 06:42:44 10° W
CZ-2C R/B 3.9 06:36:46 71° SSW 06:36:46 71° SSW 06:41:08 10° SSW
Cosmos 2016 Rocket 3.9 06:31:16 10° N 06:37:32 70° E 06:39:15 49° SSE
Cosmos 2173 Rocket 4.0 06:33:06 10° N 06:39:25 84° W 06:45:43 10° S
COSMOS 2428 3.6 06:35:16 10° WNW 06:40:49 47° SW 06:43:22 29° S
Cosmos 2242 Rocket 4.1 06:37:59 10° SSW 06:42:02 60° SW 06:42:02 60° SW
Cosmos 1816 Rocket 4.4 06:36:30 10° S 06:42:58 82° E 06:45:21 42° NNE
COSMOS 2455 3.6 06:37:15 10° SW 06:42:03 39° SSE 06:42:03 39° SSE
Lacrosse 5 rocket 3.9 06:39:34 10° NNW 06:40:19 14° N 06:40:19 14° N
DMSP B5D2-2 4.1 06:42:44 60° N 06:43:42 82° WNW 06:49:03 10° SSW
CZ-4B R/B 4.1 06:41:08 13° S 06:45:52 48° WSW 06:51:08 10° NW
ATLAS 5 CENTAUR R/B 2.5 06:39:13 10° NNW 06:46:17 69° NE 06:46:25 69° ENE
Cosmos 1459 Rocket 4.1 06:40:18 10° NNW 06:46:35 77° WSW 06:53:02 10° S
Cosmos 371 Rocket 3.7 06:42:22 10° SSW 06:47:11 59° WNW 06:47:36 57° NW
CORIOLIS 4.3 06:47:23 42° S 06:49:17 72° WSW 06:54:44 10° NNW
Cosmos 1943 Rocket 2.7 06:44:52 10° SSW 06:48:58 46° S 06:48:58 46° S
Cosmos 1470 Rocket 4.5 06:46:55 10° NNW 06:50:24 47° NW 06:50:24 47° NW
Gblst 52 Del rocket 4.2 06:45:20 10° W 06:51:53 81° N 06:51:55 81° N
Cosmos 2369 Rocket 3.1 06:46:37 10° SSW 06:50:29 39° S 06:50:29 39° S
Cosmos 2237 Rocket 2.2 06:46:56 10° NW 06:52:39 76° WSW 06:52:55 74° SSW
NOAA 12 4.3 06:53:40 56° SSW 06:54:35 68° WSW 06:59:51 10° NNW
ATLAS CENTAUR R/B 3.0 06:52:05 10° SW 06:54:46 33° SSW 06:54:46 33° SSW
SL-16 R/B 4.4 06:54:01 10° WSW 06:57:26 16° SSW 06:59:15 14° S
Okean O Rocket 3.6 07:01:05 20° SSW 07:03:03 27° WSW 07:06:48 10° WNW
SL-16 R/B 3.9 07:02:34 10° NNW 07:04:24 21° N 07:04:24 21° N
BREEZE M DEB (TANK) 4.4 06:49:37 10° WSW 07:11:36 57° NNW 07:13:13 48° N
NOSS 3-4 (A) 3.7 07:05:33 10° SW 07:12:51 71° NW 07:13:17 69° NNW
NOSS 3-4 (C) 3.7 07:05:39 10° SW 07:12:57 72° NW 07:13:20 70° NNW
Cosmos 1802 Rocket 4.4 07:06:57 10° NNW 07:13:23 63° WSW 07:19:51 10° S
Cosmos 2333 Rocket 3.8 07:08:51 10° W 07:13:55 30° SW 07:15:33 26° S
NOSS 3-3 (A) 4.4 07:16:59 10° NW 07:25:07 84° WSW 07:25:07 84° WSW
NOSS 3-3 (C) 4.4 07:17:05 10° NW 07:25:10 84° WSW 07:25:10 84° WSW
Cosmos 2360 Rocket 4.4 07:28:12 10° WSW 07:31:48 17° SSW 07:32:43 16° S
CZ-2C R/B 3.9 07:35:11 37° WNW 07:35:38 37° W 07:40:41 10° SSW
ATLAS 2AS CENTAUR R/B 3.2 07:32:36 10° SW 07:38:35 53° WNW 07:38:35 53° WNW
Cosmos 2219 Rocket 4.2 07:50:22 10° W 07:54:40 21° SSW 07:54:44 21° SSW
CZ-4C R/B 4.3 08:07:16 10° SW 08:09:49 23° SW 08:09:49 23° SW
USA 234 4.5 08:21:43 36° WSW 08:21:43 36° WSW 08:25:27 10° WSW
ATLAS 5 CENTAUR R/B 4.3 08:24:46 10° WNW 08:27:59 27° W 08:27:59 27° W
